Tracking 30923 objects as of 1-Jul-2025
HD Live streaming from Space Station
objects crossing your sky now

OPS 4682 DEB

Track OPS 4682 DEB now!
10-day predictions


NORAD ID: 38426
Int'l Code: 1965-027EF
Perigee: 1,257.9 km
Apogee: 1,312.2 km
Inclination: 90.2 °
Period: 111.1 minutes
Semi major axis: 7656 km
RCS: 0.007 m2 (small)
Launch date: April 3, 1965
Source: United States (US)
Launch site: AIR FORCE WESTERN TEST RANGE (AFWTR)

Note: This is SATELLITE DEBRIS
Your satellite tracking list
Your tracking list is empty




NASA's NSSDC Master Catalog

Two Line Element Set (TLE):
1 38426U 65027EF  25180.24357465  .00000132  00000-0  43689-3 0  9994
2 38426  90.2386   2.2270 0035465   0.9076 359.2102 12.95983571589342
Source of the keplerian elements: AFSPC